Location: Mahannah Oil Field
(37.4664°N, 96.6003°W)
Time: 03:17:55
(UTC+00:00)

X-37B - Pass Details

Date: 26 November 2020
Orbit: 383 x 391 km, 45.1° (Epoch: 22 January)

Event Time Altitude Azimuth Distance (km) Brightness Sun altitude
Rises 00:26:42 0° 219° (SW) 2,247 5.4 -15.1°
Reaches altitude 10° 00:28:53 10° 209° (SSW) 1,398 4.0 -15.5°
Maximum altitude 00:31:44 32° 144° (SE) 686 1.6 -16.0°
Enters shadow 00:32:09 30° 126° (SE) 711 1.5 -16.1°
